Time,TemperatureF,DewpointF,PressureIn,WindDirection,WindDirectionDegrees,WindSpeedMPH,WindSpeedGustMPH,Humidity,HourlyPrecipIn,Conditions,Clouds,dailyrainin,SoftwareType,DateUTC
2013-01-28 00:04:00,31.0,24.0,30.25,SE,141,3.0,7.0,75,0.00,,,0.00,,2013-01-28 05:04:00,
2013-01-28 00:11:00,31.0,24.0,30.25,SE,141,3.0,7.0,75,0.00,,,0.00,,2013-01-28 05:11:00,
2013-01-28 00:22:00,31.0,23.0,30.25,SE,129,4.0,12.0,73,0.00,,,0.00,,2013-01-28 05:22:00,
2013-01-28 00:32:00,31.0,24.0,30.23,SSE,149,3.0,10.0,74,0.00,,,0.00,,2013-01-28 05:32:00,
2013-01-28 00:42:00,31.0,24.0,30.23,SSE,149,3.0,10.0,74,0.00,,,0.00,,2013-01-28 05:42:00,
2013-01-28 00:52:00,31.0,24.0,30.23,East,101,10.0,10.0,75,0.00,,,0.00,,2013-01-28 05:52:00,
2013-01-28 01:02:00,31.0,25.0,30.20,SSW,192,3.0,11.0,77,0.00,,,0.00,,2013-01-28 06:02:00,
2013-01-28 01:11:00,31.0,25.0,30.20,SSW,192,3.0,11.0,77,0.00,,,0.00,,2013-01-28 06:11:00,
2013-01-28 01:22:00,31.0,25.0,30.20,SSE,157,4.0,11.0,78,0.00,,,0.00,,2013-01-28 06:22:00,
2013-01-28 01:32:00,31.0,25.0,30.17,SSE,159,5.0,10.0,79,0.00,,,0.00,,2013-01-28 06:32:00,
2013-01-28 01:42:00,31.0,25.0,30.17,SSE,159,5.0,10.0,79,0.00,,,0.00,,2013-01-28 06:42:00,
2013-01-28 01:52:00,31.0,26.0,30.17,SSE,163,3.0,10.0,81,0.00,,,0.00,,2013-01-28 06:52:00,
2013-01-28 02:03:00,32.0,27.0,30.14,ESE,110,7.0,12.0,83,0.00,,,0.00,,2013-01-28 07:03:00,
2013-01-28 02:11:00,32.0,27.0,30.14,ESE,110,7.0,12.0,83,0.00,,,0.00,,2013-01-28 07:11:00,
2013-01-28 02:22:00,32.0,28.0,30.14,SE,145,4.0,12.0,84,0.00,,,0.00,,2013-01-28 07:22:00,
2013-01-28 02:32:00,33.0,29.0,30.15,SSW,192,5.0,12.0,85,0.00,,,0.00,,2013-01-28 07:32:00,
2013-01-28 02:42:00,33.0,29.0,30.15,SSW,192,5.0,12.0,85,0.00,,,0.00,,2013-01-28 07:42:00,
2013-01-28 02:51:00,32.0,29.0,30.15,SSE,164,4.0,12.0,87,0.00,,,0.00,,2013-01-28 07:51:00,
2013-01-28 03:01:00,33.0,30.0,30.13,SSE,164,4.0,10.0,89,0.00,,,0.00,,2013-01-28 08:01:00,
2013-01-28 03:11:00,33.0,30.0,30.13,SSE,164,4.0,10.0,89,0.00,,,0.00,,2013-01-28 08:11:00,
2013-01-28 03:21:00,33.0,30.0,30.13,South,187,2.0,10.0,89,0.00,,,0.00,,2013-01-28 08:21:00,
2013-01-28 03:32:00,34.0,32.0,30.11,SSE,152,5.0,9.0,91,0.05,,,0.05,,2013-01-28 08:32:00,
2013-01-28 03:42:00,34.0,32.0,30.11,SSE,152,5.0,9.0,91,0.05,,,0.05,,2013-01-28 08:42:00,
2013-01-28 03:52:00,34.0,32.0,30.11,SE,140,12.0,12.0,91,0.07,,,0.07,,2013-01-28 08:52:00,
2013-01-28 04:02:00,35.0,33.0,30.07,SSE,160,11.0,11.0,91,0.09,,,0.09,,2013-01-28 09:02:00,
2013-01-28 04:11:00,35.0,33.0,30.07,SSE,160,11.0,11.0,91,0.09,,,0.09,,2013-01-28 09:11:00,
2013-01-28 04:22:00,35.0,33.0,30.07,SE,145,4.0,11.0,91,0.10,,,0.10,,2013-01-28 09:22:00,
2013-01-28 04:32:00,35.0,32.0,30.06,SE,132,11.0,12.0,90,0.11,,,0.12,,2013-01-28 09:32:00,
2013-01-28 04:42:00,35.0,32.0,30.06,SE,132,11.0,12.0,90,0.11,,,0.12,,2013-01-28 09:42:00,
2013-01-28 04:52:00,36.0,33.0,30.06,SSE,153,8.0,13.0,90,0.12,,,0.13,,2013-01-28 09:52:00,
2013-01-28 05:02:00,36.0,33.0,30.05,SSE,164,6.0,15.0,90,0.08,,,0.15,,2013-01-28 10:02:00,
2013-01-28 05:11:00,36.0,33.0,30.05,SSE,164,6.0,15.0,90,0.08,,,0.15,,2013-01-28 10:11:00,
2013-01-28 05:21:00,37.0,34.0,30.05,SE,142,10.0,15.0,90,0.09,,,0.16,,2013-01-28 10:21:00,
2013-01-28 05:32:00,38.0,35.0,30.04,SE,132,3.0,17.0,90,0.09,,,0.18,,2013-01-28 10:32:00,
2013-01-28 05:42:00,38.0,35.0,30.04,SE,132,3.0,17.0,90,0.09,,,0.18,,2013-01-28 10:42:00,
2013-01-28 05:51:00,38.0,35.0,30.04,West,271,3.0,17.0,90,0.10,,,0.20,,2013-01-28 10:51:00,
2013-01-28 06:02:00,37.0,34.0,30.03,South,171,6.0,14.0,90,0.08,,,0.22,,2013-01-28 11:02:00,
2013-01-28 06:11:00,37.0,34.0,30.03,South,171,6.0,14.0,90,0.08,,,0.22,,2013-01-28 11:11:00,
2013-01-28 06:22:00,37.0,35.0,30.03,SE,133,9.0,14.0,91,0.09,,,0.23,,2013-01-28 11:22:00,
2013-01-28 06:32:00,37.0,35.0,30.03,South,171,9.0,16.0,92,0.08,,,0.25,,2013-01-28 11:32:00,
2013-01-28 06:42:00,37.0,35.0,30.03,South,171,9.0,16.0,92,0.08,,,0.25,,2013-01-28 11:42:00,
2013-01-28 06:52:00,37.0,35.0,30.03,SSW,194,6.0,16.0,92,0.09,,,0.26,,2013-01-28 11:52:00,
2013-01-28 07:03:00,37.0,35.0,30.03,SSE,155,4.0,11.0,93,0.08,,,0.28,,2013-01-28 12:03:00,
2013-01-28 07:12:00,37.0,35.0,30.03,SSE,155,4.0,11.0,93,0.08,,,0.28,,2013-01-28 12:12:00,
2013-01-28 07:23:00,38.0,36.0,30.03,NE,50,3.0,11.0,93,0.09,,,0.29,,2013-01-28 12:23:00,
2013-01-28 07:33:00,38.0,36.0,30.01,South,173,3.0,12.0,93,0.07,,,0.31,,2013-01-28 12:33:00,
2013-01-28 07:42:00,38.0,36.0,30.01,South,173,3.0,12.0,93,0.07,,,0.31,,2013-01-28 12:42:00,
2013-01-28 07:52:00,38.0,36.0,30.01,SSW,210,3.0,12.0,93,0.08,,,0.32,,2013-01-28 12:52:00,
2013-01-28 08:03:00,40.0,38.0,30.01,WSW,245,6.0,14.0,93,0.07,,,0.33,,2013-01-28 13:03:00,
2013-01-28 08:12:00,40.0,38.0,30.01,WSW,245,6.0,14.0,93,0.07,,,0.33,,2013-01-28 13:12:00,
2013-01-28 08:23:00,40.0,38.0,30.01,SSW,192,4.0,14.0,93,0.08,,,0.34,,2013-01-28 13:23:00,
2013-01-28 08:33:00,39.0,37.0,29.99,SW,232,4.0,10.0,93,0.05,,,0.34,,2013-01-28 13:33:00,
2013-01-28 08:42:00,39.0,37.0,29.99,SW,232,4.0,10.0,93,0.05,,,0.34,,2013-01-28 13:42:00,
2013-01-28 08:52:00,40.0,38.0,29.99,SW,219,5.0,11.0,93,0.06,,,0.35,,2013-01-28 13:52:00,
2013-01-28 09:03:00,40.0,38.0,29.99,SW,233,3.0,10.0,92,0.03,,,0.35,,2013-01-28 14:03:00,
2013-01-28 09:12:00,40.0,38.0,29.99,SW,233,3.0,10.0,92,0.03,,,0.35,,2013-01-28 14:12:00,
2013-01-28 09:23:00,40.0,38.0,29.99,SW,225,5.0,11.0,92,0.03,,,0.35,,2013-01-28 14:23:00,
2013-01-28 09:33:00,40.0,38.0,29.97,SSE,148,4.0,10.0,93,0.02,,,0.36,,2013-01-28 14:33:00,
2013-01-28 09:43:00,40.0,38.0,29.97,SSE,148,4.0,10.0,93,0.02,,,0.36,,2013-01-28 14:43:00,
2013-01-28 09:52:00,40.0,38.0,29.97,SE,142,3.0,11.0,92,0.02,,,0.36,,2013-01-28 14:52:00,
2013-01-28 10:03:00,40.0,38.0,29.96,SSE,150,4.0,14.0,92,0.01,,,0.36,,2013-01-28 15:03:00,
2013-01-28 10:13:00,40.0,38.0,29.96,SSE,150,4.0,14.0,92,0.01,,,0.36,,2013-01-28 15:13:00,
2013-01-28 10:23:00,40.0,38.0,29.96,WSW,256,4.0,14.0,92,0.01,,,0.36,,2013-01-28 15:23:00,
2013-01-28 10:33:00,41.0,39.0,29.96,SSW,199,2.0,10.0,93,0.01,,,0.36,,2013-01-28 15:33:00,
2013-01-28 10:43:00,41.0,39.0,29.96,SSW,199,2.0,10.0,93,0.01,,,0.36,,2013-01-28 15:43:00,
2013-01-28 10:52:00,41.0,39.0,29.96,SSE,148,5.0,11.0,93,0.01,,,0.36,,2013-01-28 15:52:00,
2013-01-28 11:04:00,41.0,39.0,29.96,WSW,241,11.0,13.0,92,0.00,,,0.36,,2013-01-28 16:04:00,
2013-01-28 11:12:00,41.0,39.0,29.96,WSW,241,11.0,13.0,92,0.00,,,0.36,,2013-01-28 16:12:00,
2013-01-28 11:22:00,42.0,40.0,29.96,South,173,4.0,14.0,92,0.00,,,0.36,,2013-01-28 16:22:00,
2013-01-28 11:33:00,42.0,40.0,29.96,South,182,7.0,11.0,91,0.00,,,0.36,,2013-01-28 16:33:00,
2013-01-28 11:43:00,42.0,40.0,29.96,South,182,7.0,11.0,91,0.00,,,0.36,,2013-01-28 16:43:00,
2013-01-28 11:52:00,42.0,40.0,29.96,SSE,157,6.0,12.0,91,0.00,,,0.36,,2013-01-28 16:52:00,
2013-01-28 12:02:00,43.0,41.0,29.94,SSE,159,3.0,12.0,91,0.00,,,0.36,,2013-01-28 17:02:00,
2013-01-28 12:12:00,43.0,41.0,29.94,SSE,159,3.0,12.0,91,0.00,,,0.36,,2013-01-28 17:12:00,
2013-01-28 12:23:00,43.0,40.0,29.94,SSW,194,5.0,12.0,90,0.00,,,0.36,,2013-01-28 17:23:00,
2013-01-28 12:33:00,43.0,41.0,29.93,ESE,112,2.0,11.0,91,0.00,,,0.36,,2013-01-28 17:33:00,
2013-01-28 12:42:00,43.0,41.0,29.93,ESE,112,2.0,11.0,91,0.00,,,0.36,,2013-01-28 17:42:00,
2013-01-28 12:52:00,44.0,42.0,29.93,WSW,237,3.0,11.0,91,0.00,,,0.36,,2013-01-28 17:52:00,
2013-01-28 13:03:00,44.0,42.0,29.92,SSW,205,3.0,14.0,92,0.03,,,0.39,,2013-01-28 18:03:00,
2013-01-28 13:12:00,44.0,42.0,29.92,SSW,205,3.0,14.0,92,0.03,,,0.39,,2013-01-28 18:12:00,
2013-01-28 13:23:00,44.0,42.0,29.92,SSW,207,4.0,14.0,92,0.03,,,0.39,,2013-01-28 18:23:00,
2013-01-28 13:33:00,44.0,42.0,29.91,South,179,3.0,8.0,93,0.03,,,0.39,,2013-01-28 18:33:00,
2013-01-28 13:42:00,44.0,42.0,29.91,South,179,3.0,8.0,93,0.03,,,0.39,,2013-01-28 18:42:00,
2013-01-28 13:52:00,44.0,42.0,29.91,South,171,2.0,8.0,93,0.03,,,0.39,,2013-01-28 18:52:00,
2013-01-28 14:02:00,44.0,42.0,29.90,SW,218,5.0,9.0,93,0.03,,,0.39,,2013-01-28 19:02:00,
2013-01-28 14:12:00,44.0,42.0,29.90,SW,218,5.0,9.0,93,0.03,,,0.39,,2013-01-28 19:12:00,
2013-01-28 14:22:00,45.0,43.0,29.90,WSW,250,2.0,9.0,93,0.03,,,0.39,,2013-01-28 19:22:00,
2013-01-28 14:33:00,46.0,44.0,29.89,South,188,4.0,12.0,93,0.00,,,0.39,,2013-01-28 19:33:00,
2013-01-28 14:42:00,46.0,44.0,29.89,South,188,4.0,12.0,93,0.00,,,0.39,,2013-01-28 19:42:00,
2013-01-28 14:52:00,47.0,45.0,29.89,SW,236,8.0,12.0,93,0.00,,,0.39,,2013-01-28 19:52:00,
2013-01-28 15:03:00,48.0,46.0,29.90,SSW,196,7.0,10.0,92,0.00,,,0.39,,2013-01-28 20:03:00,
2013-01-28 15:12:00,48.0,46.0,29.90,SSW,196,7.0,10.0,92,0.00,,,0.39,,2013-01-28 20:12:00,
2013-01-28 15:22:00,48.0,46.0,29.90,WSW,248,13.0,15.0,92,0.00,,,0.39,,2013-01-28 20:22:00,
2013-01-28 15:33:00,48.0,46.0,29.91,WSW,249,3.0,11.0,92,0.00,,,0.39,,2013-01-28 20:33:00,
2013-01-28 15:42:00,48.0,46.0,29.91,WSW,249,3.0,11.0,92,0.00,,,0.39,,2013-01-28 20:42:00,
2013-01-28 15:52:00,48.0,46.0,29.91,WSW,244,9.0,11.0,92,0.00,,,0.39,,2013-01-28 20:52:00,
2013-01-28 16:03:00,49.0,46.0,29.92,West,259,4.0,12.0,91,0.00,,,0.39,,2013-01-28 21:03:00,
2013-01-28 16:12:00,49.0,46.0,29.92,West,259,4.0,12.0,91,0.00,,,0.39,,2013-01-28 21:12:00,
2013-01-28 16:23:00,49.0,46.0,29.92,WSW,256,3.0,12.0,91,0.00,,,0.39,,2013-01-28 21:23:00,
2013-01-28 16:33:00,49.0,47.0,29.92,WSW,237,8.0,12.0,92,0.00,,,0.39,,2013-01-28 21:33:00,
2013-01-28 16:43:00,49.0,47.0,29.92,WSW,237,8.0,12.0,92,0.00,,,0.39,,2013-01-28 21:43:00,
2013-01-28 16:52:00,49.0,47.0,29.92,SW,215,3.0,13.0,92,0.00,,,0.39,,2013-01-28 21:52:00,
2013-01-28 17:02:00,49.0,47.0,29.92,WSW,246,3.0,14.0,92,0.00,,,0.39,,2013-01-28 22:02:00,
2013-01-28 17:12:00,49.0,47.0,29.92,WSW,246,3.0,14.0,92,0.00,,,0.39,,2013-01-28 22:12:00,
2013-01-28 17:23:00,49.0,47.0,29.92,WSW,246,9.0,14.0,92,0.00,,,0.39,,2013-01-28 22:23:00,
2013-01-28 17:33:00,49.0,47.0,29.93,WSW,244,8.0,12.0,93,0.00,,,0.39,,2013-01-28 22:33:00,
2013-01-28 17:42:00,49.0,47.0,29.93,WSW,244,8.0,12.0,93,0.00,,,0.39,,2013-01-28 22:42:00,
2013-01-28 17:52:00,49.0,47.0,29.93,SW,234,7.0,12.0,93,0.00,,,0.39,,2013-01-28 22:52:00,
2013-01-28 18:03:00,49.0,47.0,29.93,West,276,2.0,15.0,93,0.00,,,0.39,,2013-01-28 23:03:00,
2013-01-28 18:12:00,49.0,47.0,29.93,West,276,2.0,15.0,93,0.00,,,0.39,,2013-01-28 23:12:00,
2013-01-28 18:22:00,49.0,47.0,29.93,WSW,252,6.0,15.0,94,0.00,,,0.39,,2013-01-28 23:22:00,
2013-01-28 18:32:00,49.0,47.0,29.95,WSW,237,3.0,10.0,94,0.00,,,0.39,,2013-01-28 23:32:00,
2013-01-28 18:42:00,49.0,47.0,29.95,WSW,237,3.0,10.0,94,0.00,,,0.39,,2013-01-28 23:42:00,
2013-01-28 18:52:00,49.0,47.0,29.95,West,275,2.0,10.0,94,0.00,,,0.39,,2013-01-28 23:52:00,
2013-01-28 19:02:00,49.0,48.0,29.96,West,261,3.0,10.0,95,0.00,,,0.39,,2013-01-29 00:02:00,
2013-01-28 19:12:00,49.0,48.0,29.96,West,261,3.0,10.0,95,0.00,,,0.39,,2013-01-29 00:12:00,
2013-01-28 19:22:00,49.0,48.0,29.96,WSW,237,8.0,10.0,95,0.00,,,0.39,,2013-01-29 00:22:00,
2013-01-28 19:33:00,49.0,48.0,29.96,WSW,253,3.0,10.0,95,0.00,,,0.39,,2013-01-29 00:33:00,
2013-01-28 19:42:00,49.0,48.0,29.96,WSW,253,3.0,10.0,95,0.00,,,0.39,,2013-01-29 00:42:00,
2013-01-28 19:52:00,48.0,47.0,29.96,SSW,212,4.0,10.0,95,0.00,,,0.39,,2013-01-29 00:52:00,
2013-01-28 20:02:00,48.0,47.0,29.97,WSW,242,3.0,9.0,95,0.00,,,0.39,,2013-01-29 01:02:00,
2013-01-28 20:12:00,48.0,47.0,29.97,WSW,242,3.0,9.0,95,0.00,,,0.39,,2013-01-29 01:12:00,
2013-01-28 20:23:00,48.0,47.0,29.97,West,281,2.0,9.0,95,0.00,,,0.39,,2013-01-29 01:23:00,
2013-01-28 20:32:00,48.0,47.0,29.98,WSW,249,2.0,8.0,96,0.00,,,0.39,,2013-01-29 01:32:00,
2013-01-28 20:42:00,48.0,47.0,29.98,WSW,249,2.0,8.0,96,0.00,,,0.39,,2013-01-29 01:42:00,
2013-01-28 20:52:00,48.0,47.0,29.98,West,267,0.0,8.0,96,0.00,,,0.39,,2013-01-29 01:52:00,
2013-01-28 21:02:00,48.0,47.0,29.98,WSW,250,3.0,6.0,96,0.00,,,0.39,,2013-01-29 02:02:00,
2013-01-28 21:12:00,48.0,47.0,29.98,WSW,250,3.0,6.0,96,0.00,,,0.39,,2013-01-29 02:12:00,
2013-01-28 21:22:00,48.0,47.0,29.98,SW,232,3.0,6.0,96,0.01,,,0.40,,2013-01-29 02:22:00,
2013-01-28 21:33:00,48.0,47.0,29.98,WSW,243,3.0,6.0,96,0.01,,,0.40,,2013-01-29 02:33:00,
2013-01-28 21:42:00,48.0,47.0,29.98,WSW,243,3.0,6.0,96,0.01,,,0.40,,2013-01-29 02:42:00,
2013-01-28 21:52:00,48.0,47.0,29.98,SW,221,1.0,8.0,96,0.01,,,0.40,,2013-01-29 02:52:00,
2013-01-28 22:03:00,48.0,47.0,29.98,WSW,240,2.0,6.0,96,0.01,,,0.40,,2013-01-29 03:03:00,
2013-01-28 22:12:00,48.0,47.0,29.98,WSW,240,2.0,6.0,96,0.01,,,0.40,,2013-01-29 03:12:00,
2013-01-28 22:22:00,48.0,47.0,29.98,WSW,237,1.0,6.0,96,0.01,,,0.40,,2013-01-29 03:22:00,
2013-01-28 22:32:00,48.0,47.0,29.99,West,278,2.0,5.0,96,0.00,,,0.40,,2013-01-29 03:32:00,
2013-01-28 22:42:00,48.0,47.0,29.99,West,278,2.0,5.0,96,0.00,,,0.40,,2013-01-29 03:42:00,
2013-01-28 22:52:00,48.0,47.0,29.99,West,263,0.0,5.0,96,0.00,,,0.40,,2013-01-29 03:52:00,
2013-01-28 23:03:00,48.0,47.0,29.99,SW,229,1.0,6.0,96,0.00,,,0.40,,2013-01-29 04:03:00,
2013-01-28 23:12:00,48.0,47.0,29.99,SW,229,1.0,6.0,96,0.00,,,0.40,,2013-01-29 04:12:00,
2013-01-28 23:22:00,48.0,47.0,29.99,WSW,238,2.0,6.0,96,0.00,,,0.40,,2013-01-29 04:22:00,
2013-01-28 23:32:00,48.0,47.0,29.99,SSW,195,1.0,4.0,96,0.01,,,0.41,,2013-01-29 04:32:00,
2013-01-28 23:42:00,48.0,47.0,29.99,SSW,195,1.0,4.0,96,0.01,,,0.41,,2013-01-29 04:42:00,
2013-01-28 23:52:00,48.0,47.0,29.99,West,265,1.0,4.0,96,0.01,,,0.41,,2013-01-29 04:52:00,